Content
SEND FEEDBACK

Daily
Averages
Monthly
Summary
United States of America

EARTH CITY, MISSOURI


Home > North America > United States > Missouri
Elevation: 145 meters     Latitude: 38 46N     Longitude: 090 30W

WEATHER
 
SELECT A DAY
Number of Records: 203,713;   Date Range: 1/1/95 - 9/21/14
 
SHARE

PRINT THIS DATA

[ ← Previous Day ]
WEATHER ALMANAC - 4 FEBRUARY, 2013
[ Next Day → ]
[ °F ]   °C
Weather ElementAverageHighLow
Temperature4.1 °C13.9 °C (12:51 pm)-2.2 °C (1:51 am)
Dewpoint-3.2 °C0.6 °C (1:51 pm)-7.2 °C (1:51 am)
Humidity61.2 %80 % (10:22 pm)38 % (11:51 am)
Barometer1012.9 hPa1015.9 hPa (8:51 pm)1009.1 hPa (1:08 pm)
Wind Speed14.5 km/h27.8 km/h (2:51 pm)
Wind Gust37 km/h (3:51 pm)
Weather ElementAverage
Visibility15.1 km
Wind DirectionSSW (200 °)

Weather ElementTotal
Precipitation---
Heating Degree Days12.5 (Base 18.3)
Averaged from 26 records on 4 February, 2013
WEATHER CONDITIONS BREAKOUT
WIND DIRECTION BREAKOUT
WEATHER BY HOUR - 4 FEBRUARY, 2013
[ °F ]   °C
Local TimeTemperatureDewpointHumidityBarometerVisibilityWind DirectionWind SpeedGust SpeedPrecipitationEventsConditions
1:51 AM-2.2 °C-7.2 °C69 %1015.6 hPa16.1 kmESE (120°)13 km/hOvercast
2:51 AM-1.7 °C-6.1 °C72 %1014.9 hPa16.1 kmESE (120°)13 km/hOvercast
4:51 AM-1 °C-6 °C69 %1011.5 hPa16.1 kmESE (110°)13 km/hOvercast
5:51 AM1.7 °C-5 °C61 %1011.9 hPa16.1 kmSE (130°)9.3 km/hOvercast
6:51 AM2.8 °C-5 °C57 %1011.5 hPa16.1 kmSE (140°)13 km/hOvercast
7:51 AM2.8 °C-4.4 °C59 %1011.5 hPa16.1 kmNorth (360°)7.4 km/hMostly Cloudy
8:51 AM2.2 °C-3.3 °C67 %1011.9 hPa16.1 kmESE (120°)5.6 km/hOvercast
9:51 AM6.1 °C-3.9 °C49 %1011.2 hPa16.1 kmSouth (190°)5.6 km/hMostly Cloudy
10:51 AM8.9 °C-2.8 °C44 %1010.8 hPa16.1 kmSSW (210°)13 km/hMostly Cloudy
11:51 AM12.8 °C-1.1 °C38 %1010.2 hPa16.1 kmWest (260°)16.7 km/hPartly Cloudy
12:51 PM13.9 °C0 °C39 %1009.8 hPa16.1 kmWest (280°)18.5 km/hScattered Clouds
1:08 PM12 °C0 °C44 %1009.1 hPa16.1 kmNNW (330°)22.2 km/hScattered Clouds
1:51 PM12.8 °C0.6 °C43 %1009.5 hPa16.1 kmNW (320°)20.4 km/hScattered Clouds
2:51 PM11.7 °C0.6 °C47 %1009.8 hPa16.1 kmNNW (330°)27.8 km/hPartly Cloudy
3:51 PM10 °C-0.6 °C48 %1010.8 hPa16.1 kmNW (320°)24.1 km/h37 km/hScattered Clouds
4:51 PM8.3 °C-0.6 °C54 %1011.5 hPa16.1 kmNW (320°)16.7 km/hScattered Clouds
5:51 PM5 °C-1.7 °C62 %1012.9 hPa16.1 kmNNW (340°)18.5 km/hPartly Cloudy
6:51 PM3.3 °C-2.8 °C65 %1013.9 hPa16.1 kmNNW (340°)14.8 km/hScattered Clouds
7:51 PM1.1 °C-3.9 °C70 %1014.9 hPa16.1 kmNorth (360°)24.1 km/h35.2 km/hMostly Cloudy
8:51 PM0 °C-3.9 °C75 %1015.9 hPa12.9 kmNNE (20°)16.7 km/hMostly Cloudy
9:15 PM0 °C-4 °C75 %1015.9 hPa12.9 kmNorth (350°)14.8 km/hMostly Cloudy
9:33 PM0 °C-4 °C75 %1015.2 hPa12.9 kmNE (40°)11.1 km/hMostly Cloudy
9:51 PM-0.6 °C-4.4 °C76 %1015.9 hPa12.9 kmNNE (20°)9.3 km/hMostly Cloudy
10:22 PM-1 °C-4 °C80 %1015.6 hPa12.9 kmNNE (20°)9.3 km/hMostly Cloudy
10:51 PM-0.6 °C-4.4 °C76 %1015.6 hPa12.9 kmNE (40°)7.4 km/hMostly Cloudy
11:51 PM-0.6 °C-4.4 °C76 %1015.9 hPa11.3 kmNorth (10°)11.1 km/hMostly Cloudy
Hourly data recorded from KSTL, located 0 kilometers away from Earth City, Missouri







STORIES FROM OUR PARTNERS